TimeEST,TemperatureF,Dew PointF,Humidity,Sea Level PressureIn,VisibilityMPH,Wind Direction,Wind SpeedMPH,Gust SpeedMPH,PrecipitationIn,Events,Conditions,WindDirDegrees,DateUTC
12:53 AM,72.0,66.9,84,30.05,10.0,NE,9.2,-,N/A,,Overcast,50,2012-11-18 05:53:00
1:53 AM,68.0,68.0,100,30.04,10.0,NW,6.9,-,0.00,,Scattered Clouds,310,2012-11-18 06:53:00
2:53 AM,66.9,66.9,100,30.04,10.0,NW,5.8,-,N/A,,Mostly Cloudy,320,2012-11-18 07:53:00
3:53 AM,66.9,66.9,100,30.03,10.0,NNW,6.9,-,0.06,Rain,Light Rain,340,2012-11-18 08:53:00
4:53 AM,68.0,68.0,100,30.04,10.0,North,5.8,-,0.00,,Mostly Cloudy,350,2012-11-18 09:53:00
5:29 AM,69.8,68.0,94,30.04,10.0,North,4.6,-,0.00,,Overcast,360,2012-11-18 10:29:00
5:53 AM,69.1,68.0,96,30.04,10.0,North,5.8,-,0.00,,Mostly Cloudy,360,2012-11-18 10:53:00
6:53 AM,68.0,68.0,100,30.07,10.0,NW,8.1,-,N/A,,Mostly Cloudy,320,2012-11-18 11:53:00
7:53 AM,69.1,69.1,100,30.08,7.0,NNW,3.5,-,0.05,Rain,Rain,330,2012-11-18 12:53:00
8:53 AM,70.0,69.1,97,30.10,10.0,NNW,10.4,-,0.02,,Mostly Cloudy,340,2012-11-18 13:53:00
9:53 AM,72.0,69.1,91,30.11,10.0,North,11.5,-,N/A,,Mostly Cloudy,10,2012-11-18 14:53:00
10:53 AM,75.0,68.0,79,30.10,10.0,North,9.2,-,N/A,,Scattered Clouds,350,2012-11-18 15:53:00
11:53 AM,77.0,66.9,71,30.08,10.0,NNE,15.0,-,N/A,,Scattered Clouds,20,2012-11-18 16:53:00
12:53 PM,78.1,64.0,62,30.07,10.0,NE,15.0,23.0,N/A,,Scattered Clouds,40,2012-11-18 17:53:00
1:53 PM,78.1,64.0,62,30.05,10.0,North,15.0,21.9,N/A,,Scattered Clouds,10,2012-11-18 18:53:00
2:53 PM,75.9,64.9,69,30.04,10.0,NNE,18.4,25.3,N/A,,Scattered Clouds,20,2012-11-18 19:53:00
3:53 PM,75.0,64.9,71,30.05,10.0,NNE,12.7,-,N/A,,Clear,20,2012-11-18 20:53:00
4:53 PM,73.9,64.0,71,30.06,10.0,North,11.5,-,N/A,,Scattered Clouds,360,2012-11-18 21:53:00
5:53 PM,71.1,64.9,81,30.07,10.0,North,11.5,-,N/A,,Partly Cloudy,360,2012-11-18 22:53:00
6:53 PM,70.0,66.0,87,30.09,10.0,North,10.4,-,N/A,,Scattered Clouds,350,2012-11-18 23:53:00
7:53 PM,69.1,66.0,90,30.11,10.0,North,9.2,-,N/A,,Scattered Clouds,360,2012-11-19 00:53:00
8:53 PM,68.0,66.0,93,30.12,10.0,North,11.5,-,N/A,,Partly Cloudy,350,2012-11-19 01:53:00
9:53 PM,66.9,66.9,100,30.12,10.0,NNW,11.5,-,N/A,,Clear,340,2012-11-19 02:53:00
10:53 PM,66.9,66.0,97,30.12,10.0,North,12.7,-,N/A,,Scattered Clouds,350,2012-11-19 03:53:00
11:06 PM,66.2,66.2,100,30.11,10.0,NNW,9.2,-,N/A,,Mostly Cloudy,340,2012-11-19 04:06:00
11:53 PM,66.0,66.0,100,30.10,10.0,NNW,11.5,-,N/A,,Overcast,330,2012-11-19 04:53:00